QPF
0.00 0.00 0.00 0.00 0.00 0.00 0.00 0.01 0.03 0.03 0.01 0.00 0.00 0.00 0.00 0.00 0.00 0.00 0.00 0.00 0.00 0.00 0.00 0.00 0.00 0.00 0.00 0.00 0.00 0.00 0.00 0.00 0.00 0.00 0.00 0.00 0.00 0.00 0.00 0.00 0.00 0.00 0.00 0.00 0.00
0.00 0.00 0.00 0.00 0.00 0.00 0.00 0.00 0.01 0.03 0.03 0.02 0.01 0.00 0.00 0.00 0.00 0.00 0.00 0.00 0.00 0.00 0.00 0.00 0.00 0.00 0.00 0.00 0.00 0.00 0.00 0.00 0.00 0.00 0.00 0.00 0.00 0.00 0.00 0.00 0.00 0.00 0.00 0.00 0.00
0.00 0.00 0.00 0.00 0.00 0.00 0.00 0.00 0.00 0.00 0.01 0.02 0.02 0.02 0.00 0.00 0.00 0.00 0.00 0.00 0.00 0.00 0.00 0.00 0.00 0.00 0.00 0.00 0.00 0.00 0.00 0.00 0.00 0.00 0.00 0.00 0.00 0.00 0.00 0.00 0.00 0.00 0.00 0.00 0.00
0.01 0.00 0.00 0.00 0.00 0.00 0.00 0.00 0.00 0.00 0.00 0.01 0.01 0.02 0.02 0.00 0.00 0.00 0.00 0.00 0.00 0.00 0.00 0.00 0.00 0.00 0.00 0.00 0.00 0.00 0.00 0.00 0.00 0.00 0.00 0.00 0.00 0.00 0.00 0.00 0.00 0.00 0.00 0.00 0.00
0.01 0.01 0.00 0.00 0.00 0.00 0.00 0.00 0.00 0.01 0.00 0.00 0.00 0.02 0.01 0.00 0.00 0.00 0.00 0.00 0.00 0.00 0.00 0.00 0.00 0.00 0.00 0.00 0.00 0.00 0.00 0.00 0.00 0.00 0.00 0.00 0.00 0.00 0.00 0.00 0.00 0.00 0.00 0.00 0.00
0.00 0.01 0.01 0.00 0.00 0.00 0.00 0.00 0.00 0.00 0.00 0.00 0.00 0.00 0.02 0.01 0.00 0.00 0.00 0.00 0.00 0.00 0.00 0.00 0.00 0.00 0.00 0.00 0.00 0.00 0.00 0.00 0.00 0.00 0.00 0.00 0.00 0.00 0.00 0.00 0.00 0.00 0.00 0.00 0.00
0.00 0.00 0.01 0.01 0.00 0.00 0.00 0.00 0.00 0.00 0.01 0.00 0.00 0.00 0.01 0.00 0.00 0.00 0.00 0.00 0.00 0.00 0.00 0.00 0.00 0.00 0.00 0.00 0.00 0.00 0.00 0.00 0.00 0.00 0.00 0.00 0.00 0.00 0.00 0.00 0.00 0.00 0.00 0.00 0.00
0.00 0.00 0.01 0.02 0.02 0.01 0.00 0.00 0.00 0.00 0.01 0.01 0.00 0.00 0.00 0.00 0.00 0.00 0.00 0.00 0.00 0.00 0.00 0.00 0.00 0.00 0.00 0.00 0.00 0.00 0.00 0.00 0.00 0.00 0.00 0.00 0.00 0.00 0.00 0.00 0.00 0.00 0.00 0.00 0.00
0.00 0.00 0.01 0.02 0.04 0.02 0.00 0.01 0.00 0.00 0.00 0.00 0.00 0.01 0.00 0.00 0.00 0.00 0.00 0.00 0.00 0.00 0.00 0.00 0.00 0.00 0.00 0.00 0.00 0.00 0.00 0.00 0.00 0.00 0.00 0.00 0.00 0.00 0.00 0.00 0.00 0.00 0.00 0.00 0.00
0.00 0.00 0.00 0.00 0.03 0.04 0.01 0.01 0.01 0.01 0.00 0.01 0.01 0.01 0.00 0.00 0.00 0.00 0.00 0.00 0.00 0.00 0.00 0.00 0.00 0.00 0.00 0.00 0.00 0.00 0.00 0.00 0.00 0.00 0.00 0.00 0.00 0.00 0.00 0.00 0.00 0.00 0.00 0.00 0.00
0.00 0.00 0.00 0.00 0.01 0.03 0.06 0.03 0.01 0.00 0.00 0.00 0.00 0.00 0.00 0.00 0.00 0.00 0.00 0.00 0.00 0.00 0.00 0.00 0.00 0.00 0.00 0.00 0.00 0.00 0.00 0.00 0.00 0.00 0.00 0.00 0.00 0.00 0.00 0.00 0.00 0.00 0.00 0.00 0.00
0.01 0.00 0.00 0.01 0.01 0.02 0.04 0.00 0.00 0.00 0.00 0.00 0.00 0.00 0.00 0.00 0.00 0.00 0.00 0.00 0.00 0.00 0.00 0.00 0.00 0.00 0.00 0.00 0.00 0.00 0.00 0.00 0.00 0.00 0.00 0.00 0.00 0.00 0.00 0.00 0.00 0.00 0.00 0.00 0.00
0.01 0.01 0.01 0.01 0.05 0.05 0.02 0.00 0.00 0.00 0.00 0.00 0.00 0.00 0.00 0.00 0.00 0.00 0.00 0.00 0.00 0.00 0.00 0.00 0.00 0.00 0.00 0.00 0.00 0.00 0.00 0.00 0.00 0.00 0.00 0.00 0.00 0.00 0.00 0.00 0.00 0.00 0.00 0.00 0.00
0.01 0.01 0.01 0.06 0.11 0.04 0.02 0.00 0.00 0.00 0.00 0.00 0.00 0.00 0.00 0.01 0.00 0.00 0.00 0.00 0.00 0.00 0.00 0.00 0.00 0.00 0.00 0.00 0.00 0.00 0.00 0.00 0.00 0.00 0.00 0.00 0.00 0.00 0.00 0.00 0.00 0.00 0.00 0.00 0.00
0.01 0.01 0.02 0.09 0.06 0.02 0.01 0.01 0.00 0.00 0.00 0.00 0.00 0.00 0.00 0.00 0.00 0.00 0.00 0.00 0.00 0.00 0.00 0.00 0.00 0.00 0.00 0.00 0.00 0.00 0.00 0.00 0.00 0.00 0.00 0.00 0.00 0.00 0.00 0.00 0.00 0.00 0.00 0.00 0.00
0.02 0.02 0.05 0.10 0.07 0.01 0.02 0.01 0.00 0.00 0.00 0.00 0.00 0.00 0.01 0.00 0.00 0.00 0.00 0.00 0.00 0.00 0.00 0.00 0.00 0.00 0.00 0.00 0.00 0.00 0.00 0.00 0.00 0.00 0.00 0.00 0.00 0.00 0.00 0.00 0.00 0.00 0.00 0.00 0.00
0.03 0.04 0.08 0.09 0.02 0.01 0.01 0.01 0.00 0.00 0.00 0.00 0.00 0.00 0.00 0.00 0.00 0.00 0.00 0.00 0.00 0.00 0.00 0.00 0.00 0.00 0.00 0.00 0.00 0.00 0.00 0.00 0.00 0.00 0.00 0.00 0.00 0.00 0.00 0.00 0.00 0.00 0.00 0.00 0.00
0.05 0.06 0.09 0.10 0.03 0.01 0.02 0.01 0.00 0.00 0.00 0.00 0.00 0.00 0.00 0.00 0.00 0.00 0.00 0.00 0.00 0.00 0.00 0.00 0.00 0.00 0.00 0.00 0.00 0.00 0.00 0.00 0.00 0.00 0.00 0.00 0.00 0.00 0.00 0.00 0.00 0.00 0.00 0.00 0.00
0.05 0.07 0.07 0.05 0.02 0.00 0.01 0.00 0.00 0.00 0.00 0.00 0.01 0.02 0.01 0.00 0.00 0.01 0.01 0.00 0.00 0.00 0.00 0.00 0.00 0.00 0.00 0.00 0.00 0.00 0.00 0.00 0.00 0.00 0.00 0.00 0.00 0.00 0.00 0.00 0.00 0.00 0.00 0.00 0.00
0.08 0.06 0.03 0.01 0.00 0.00 0.00 0.00 0.00 0.00 0.00 0.00 0.00 0.01 0.00 0.01 0.01 0.01 0.02 0.01 0.00 0.00 0.00 0.00 0.00 0.00 0.00 0.00 0.00 0.00 0.00 0.00 0.00 0.00 0.00 0.00 0.00 0.00 0.00 0.00 0.00 0.00 0.00 0.00 0.00
0.06 0.04 0.01 0.01 0.00 0.00 0.00 0.00 0.00 0.00 0.00 0.00 0.00 0.00 0.01 0.03 0.03 0.00 0.00 0.00 0.00 0.00 0.00 0.00 0.00 0.00 0.00 0.00 0.00 0.00 0.00 0.00 0.00 0.00 0.00 0.00 0.00 0.00 0.00 0.00 0.00 0.00 0.00 0.00 0.00
0.02 0.02 0.00 0.00 0.00 0.00 0.00 0.00 0.00 0.00 0.00 0.00 0.00 0.00 0.01 0.03 0.07 0.05 0.00 0.00 0.00 0.00 0.00 0.00 0.00 0.00 0.00 0.00 0.00 0.00 0.00 0.00 0.00 0.00 0.00 0.00 0.00 0.00 0.00 0.00 0.00 0.00 0.00 0.00 0.00
0.00 0.00 0.00 0.00 0.00 0.00 0.00 0.00 0.00 0.00 0.00 0.00 0.00 0.00 0.00 0.01 0.04 0.04 0.03 0.00 0.00 0.01 0.01 0.01 0.01 0.00 0.00 0.00 0.00 0.00 0.00 0.00 0.00 0.00 0.00 0.00 0.00 0.00 0.00 0.00 0.00 0.00 0.00 0.00 0.00
0.00 0.00 0.00 0.00 0.00 0.00 0.00 0.00 0.00 0.00 0.00 0.00 0.00 0.01 0.01 0.00 0.02 0.01 0.02 0.03 0.03 0.01 0.01 0.06 0.02 0.01 0.00 0.00 0.00 0.00 0.00 0.00 0.00 0.00 0.00 0.00 0.00 0.00 0.00 0.00 0.00 0.00 0.00 0.00 0.00
0.00 0.00 0.00 0.00 0.00 0.00 0.00 0.00 0.00 0.00 0.00 0.00 0.00 0.00 0.00 0.00 0.01 0.01 0.01 0.02 0.03 0.03 0.05 0.07 0.02 0.00 0.00 0.00 0.00 0.00 0.00 0.00 0.00 0.00 0.00 0.00 0.00 0.00 0.00 0.00 0.00 0.00 0.00 0.00 0.00
0.00 0.00 0.00 0.00 0.00 0.00 0.00 0.00 0.00 0.00 0.00 0.00 0.00 0.00 0.00 0.00 0.00 0.01 0.01 0.02 0.03 0.04 0.07 0.09 0.04 0.01 0.00 0.00 0.00 0.00 0.00 0.00 0.00 0.00 0.00 0.00 0.00 0.00 0.00 0.00 0.00 0.00 0.00 0.00 0.00
0.00 0.00 0.00 0.00 0.00 0.00 0.00 0.00 0.00 0.00 0.00 0.00 0.00 0.00 0.00 0.00 0.00 0.00 0.00 0.00 0.01 0.04 0.06 0.10 0.06 0.04 0.01 0.00 0.01 0.01 0.00 0.00 0.00 0.00 0.00 0.00 0.00 0.00 0.00 0.00 0.00 0.00 0.00 0.00 0.00
MSLP
1017.52 1017.46 1017.43 1017.47 1017.44 1017.44 1017.38 1017.45 1017.35 1017.20 1017.00 1016.95 1016.90 1016.89 1016.80 1016.71 1016.48 1016.58 1016.28 1014.51 1014.40 1014.38 1014.61 1015.39 1015.56 1015.63 1015.87 1016.38 1016.64 1017.09 1017.59 1017.37 1016.58 1016.23 1014.99 1014.78 1014.64 1014.38 1014.26 1014.40 1014.54 1014.57 1014.76 1015.32 1015.80
1017.16 1017.23 1017.19 1017.10 1017.19 1017.21 1017.27 1017.35 1017.37 1017.34 1017.12 1016.83 1016.64 1016.70 1016.72 1016.63 1016.48 1015.79 1014.27 1013.98 1014.08 1014.15 1014.75 1015.12 1015.61 1015.89 1016.33 1016.36 1016.70 1016.90 1017.11 1016.37 1015.45 1015.08 1014.57 1014.49 1014.53 1014.32 1014.45 1014.54 1014.55 1014.55 1014.81 1015.48 1016.07
1016.77 1016.88 1016.96 1016.97 1016.94 1017.04 1017.13 1017.16 1017.25 1017.23 1017.21 1016.97 1016.60 1016.54 1016.55 1016.56 1016.47 1014.47 1013.71 1013.56 1013.81 1014.07 1014.31 1014.69 1015.20 1015.62 1016.33 1016.43 1016.48 1016.46 1016.01 1015.49 1014.78 1014.40 1014.35 1014.44 1014.46 1014.35 1014.51 1014.45 1013.73 1013.87 1014.39 1015.42 1016.08
1016.50 1016.49 1016.60 1016.73 1016.75 1016.75 1016.91 1016.98 1017.06 1017.04 1017.09 1017.06 1016.71 1016.58 1016.53 1016.61 1016.00 1014.06 1013.55 1012.92 1013.31 1014.15 1014.62 1014.89 1015.48 1015.75 1016.06 1016.40 1015.95 1016.23 1015.43 1015.14 1014.58 1014.39 1014.37 1014.54 1014.38 1014.41 1014.34 1013.39 1013.14 1013.41 1013.97 1014.95 1015.59
1016.27 1016.20 1016.23 1016.37 1016.49 1016.43 1016.49 1016.69 1016.77 1016.89 1016.98 1016.91 1016.86 1016.72 1016.60 1016.37 1014.91 1013.85 1013.79 1013.65 1013.75 1014.29 1014.64 1014.91 1015.30 1015.66 1015.68 1015.73 1015.88 1015.88 1015.15 1014.93 1014.65 1014.55 1014.56 1014.48 1014.42 1014.49 1013.80 1013.13 1013.44 1013.77 1014.27 1014.71 1015.13
1015.97 1015.97 1015.88 1016.07 1016.20 1016.27 1016.34 1016.26 1016.40 1016.54 1016.78 1016.89 1016.82 1016.67 1016.74 1015.27 1014.38 1013.96 1014.06 1014.14 1014.22 1014.39 1014.63 1014.82 1014.79 1015.04 1015.32 1015.48 1015.26 1014.74 1014.87 1014.79 1014.81 1014.73 1014.77 1014.78 1014.66 1014.41 1012.90 1012.80 1013.24 1013.91 1014.18 1014.43 1014.71
1015.68 1015.59 1015.59 1015.60 1015.75 1015.98 1016.02 1016.18 1016.05 1016.07 1016.36 1016.56 1016.65 1016.66 1015.91 1014.29 1014.15 1014.21 1014.15 1014.20 1014.44 1014.57 1014.51 1014.47 1014.56 1014.76 1014.85 1015.31 1014.90 1014.74 1015.07 1015.07 1014.95 1014.87 1014.81 1014.79 1014.72 1013.21 1012.58 1012.81 1013.15 1013.54 1013.92 1014.14 1014.19
1015.02 1015.22 1015.23 1015.20 1015.21 1015.38 1015.68 1015.76 1016.00 1015.99 1016.08 1016.32 1016.44 1016.49 1014.37 1013.68 1013.65 1014.07 1014.34 1014.15 1014.27 1014.55 1014.62 1014.20 1014.33 1014.77 1014.92 1014.94 1015.11 1015.34 1015.41 1015.41 1014.75 1014.84 1014.82 1014.96 1013.79 1012.52 1012.48 1012.80 1013.04 1013.32 1013.54 1013.75 1013.68
1014.44 1014.63 1014.64 1014.59 1014.82 1014.95 1015.11 1015.34 1015.66 1015.87 1015.83 1016.06 1016.37 1016.37 1014.09 1012.87 1012.97 1013.28 1013.76 1014.22 1014.18 1014.24 1014.48 1014.31 1014.35 1014.77 1015.07 1015.46 1015.92 1015.94 1015.81 1015.70 1015.21 1014.72 1014.84 1015.09 1014.04 1012.77 1012.58 1012.88 1012.87 1013.03 1013.12 1013.30 1013.20
1013.78 1014.05 1014.06 1014.13 1014.40 1014.43 1014.71 1014.99 1015.28 1015.70 1015.79 1016.04 1016.09 1016.59 1014.05 1012.67 1012.40 1012.39 1012.98 1013.56 1014.17 1014.36 1014.63 1014.79 1014.67 1014.73 1015.12 1015.25 1014.63 1015.80 1015.94 1015.56 1015.32 1014.83 1015.10 1015.03 1014.35 1012.81 1012.87 1013.03 1012.88 1012.74 1012.57 1012.59 1012.53
1013.01 1013.23 1013.33 1013.50 1013.75 1014.24 1014.44 1015.00 1015.54 1015.62 1015.28 1014.67 1014.57 1013.17 1012.30 1011.86 1012.08 1012.36 1012.51 1013.33 1013.78 1014.27 1014.36 1014.72 1014.82 1012.98 1013.79 1014.52 1014.83 1015.02 1015.26 1015.19 1015.03 1014.65 1014.95 1014.79 1014.30 1013.21 1012.79 1012.89 1012.72 1012.27 1011.88 1011.61 1011.23
1012.32 1012.60 1012.62 1012.75 1013.21 1013.59 1014.10 1013.46 1013.69 1013.57 1014.16 1014.24 1013.96 1013.85 1013.04 1012.67 1012.30 1012.04 1012.26 1013.13 1013.35 1013.48 1014.19 1014.75 1012.62 1013.66 1013.99 1014.45 1014.83 1015.15 1015.19 1015.29 1014.99 1014.83 1015.08 1014.63 1013.86 1013.04 1012.36 1012.22 1011.69 1011.34 1011.16 1010.74 1010.29
1011.60 1011.85 1012.02 1012.15 1012.58 1013.10 1013.33 1013.43 1013.51 1013.61 1013.86 1013.36 1012.75 1012.24 1012.70 1013.13 1012.57 1011.45 1011.69 1011.83 1012.39 1013.02 1013.16 1012.97 1012.35 1013.25 1013.76 1014.18 1014.50 1014.67 1014.78 1015.12 1015.07 1015.00 1015.08 1014.94 1013.26 1012.45 1011.09 1010.84 1010.55 1010.38 1009.97 1009.94 1009.62
1010.93 1011.15 1011.32 1011.83 1012.55 1012.56 1012.58 1013.00 1014.07 1014.30 1013.76 1012.07 1011.82 1010.61 1011.43 1012.40 1011.55 1011.08 1010.76 1010.83 1011.47 1011.59 1012.77 1013.14 1012.64 1012.75 1013.02 1013.34 1013.79 1014.18 1014.34 1014.86 1015.26 1015.51 1015.55 1014.97 1013.03 1012.11 1010.96 1010.36 1010.01 1009.39 1009.17 1008.96 1009.24
1010.17 1010.35 1010.68 1011.11 1011.34 1011.72 1012.10 1012.60 1014.18 1014.84 1012.22 1010.06 1010.06 1009.35 1009.48 1010.61 1009.56 1009.18 1009.92 1010.41 1010.03 1010.49 1011.82 1011.40 1012.11 1012.83 1013.07 1012.52 1013.34 1013.26 1013.68 1014.62 1015.32 1015.65 1015.71 1015.15 1015.02 1011.36 1010.90 1010.16 1009.29 1008.52 1008.27 1008.87 1009.06
1009.25 1009.47 1009.92 1010.32 1010.85 1011.29 1012.22 1012.75 1014.27 1014.10 1010.91 1009.53 1008.91 1008.96 1009.70 1010.10 1009.43 1009.36 1009.49 1009.91 1009.42 1010.10 1010.53 1010.98 1011.27 1011.55 1011.20 1012.20 1012.57 1013.33 1014.23 1015.16 1016.00 1016.40 1015.56 1014.50 1014.46 1010.92 1010.27 1009.27 1008.23 1007.97 1008.19 1008.75 1009.34
1008.30 1008.88 1009.51 1009.60 1010.07 1010.88 1012.34 1013.34 1013.92 1011.60 1009.64 1009.49 1008.50 1008.35 1008.47 1008.83 1009.31 1009.08 1008.86 1009.26 1008.68 1009.26 1010.13 1010.94 1011.06 1010.88 1010.93 1011.95 1012.69 1012.66 1013.56 1015.45 1016.40 1016.65 1014.59 1014.01 1013.58 1010.18 1009.35 1008.42 1007.96 1007.94 1008.30 1008.81 1009.19
1007.44 1008.08 1008.33 1008.78 1009.48 1010.37 1011.63 1012.71 1011.74 1010.29 1008.93 1008.17 1007.87 1008.43 1008.52 1008.66 1008.67 1009.02 1008.52 1008.18 1008.20 1008.17 1008.85 1009.61 1010.42 1009.88 1009.92 1010.07 1011.07 1011.94 1012.07 1012.42 1013.63 1014.39 1014.51 1014.28 1012.07 1009.40 1008.16 1007.70 1007.75 1007.96 1008.31 1008.59 1009.20
1006.85 1007.36 1007.55 1007.64 1008.36 1009.78 1010.99 1010.36 1009.47 1009.14 1007.77 1007.53 1007.91 1008.49 1008.45 1008.68 1008.64 1008.59 1008.21 1007.51 1006.71 1006.71 1007.44 1008.53 1008.85 1008.78 1008.60 1008.92 1009.40 1010.69 1010.73 1010.26 1012.09 1013.14 1013.57 1012.32 1010.59 1009.13 1007.89 1007.79 1007.93 1007.89 1008.06 1008.60 1009.10
1005.97 1006.19 1005.74 1006.77 1007.71 1009.36 1009.00 1009.18 1009.05 1007.83 1007.08 1007.41 1007.70 1007.60 1007.62 1007.89 1008.37 1008.13 1007.75 1006.82 1006.91 1006.76 1006.29 1006.85 1007.88 1007.93 1008.32 1008.25 1008.57 1008.20 1008.61 1010.25 1010.64 1011.72 1012.21 1011.16 1010.38 1008.68 1008.01 1007.74 1007.87 1008.10 1008.32 1008.64 1009.21
1004.73 1004.93 1004.64 1005.67 1007.24 1008.25 1007.77 1008.42 1008.18 1007.55 1007.13 1007.43 1007.53 1007.66 1007.49 1007.71 1007.50 1007.56 1007.22 1006.92 1006.34 1006.32 1006.85 1006.66 1006.62 1008.16 1008.05 1007.52 1007.37 1007.99 1008.24 1008.69 1009.07 1009.97 1010.28 1010.35 1008.95 1007.84 1007.67 1007.53 1007.72 1008.11 1008.37 1008.86 1009.18
1003.41 1004.35 1004.03 1005.29 1006.24 1007.46 1007.94 1007.90 1007.31 1007.23 1007.31 1007.35 1007.52 1007.51 1007.65 1007.67 1007.56 1007.45 1007.04 1006.39 1005.59 1006.07 1006.57 1006.72 1006.79 1007.70 1007.44 1007.26 1006.96 1006.65 1006.77 1007.24 1007.80 1008.91 1009.12 1009.11 1008.33 1007.70 1007.86 1007.82 1007.85 1008.18 1008.30 1008.79 1009.36
1003.51 1004.06 1003.69 1003.55 1004.80 1006.73 1007.80 1007.57 1007.26 1007.18 1007.10 1007.62 1007.59 1007.48 1007.97 1008.03 1007.94 1006.99 1007.21 1006.07 1005.66 1005.79 1005.80 1006.34 1006.54 1007.42 1007.86 1007.97 1007.46 1006.74 1006.55 1006.46 1007.18 1007.65 1008.21 1008.62 1008.13 1007.78 1008.06 1008.21 1008.16 1008.18 1008.43 1008.80 1009.21
1003.00 1003.35 1003.51 1004.00 1004.50 1005.19 1006.94 1007.33 1007.50 1007.24 1007.32 1007.51 1007.81 1007.57 1008.15 1008.23 1007.94 1007.72 1006.92 1006.29 1005.82 1005.54 1005.72 1005.87 1006.25 1006.22 1006.06 1005.76 1006.07 1006.76 1006.21 1005.97 1006.33 1007.10 1007.25 1007.35 1007.73 1008.09 1008.20 1008.28 1008.35 1008.37 1008.40 1008.69 1009.00
1001.67 1001.94 1002.29 1003.45 1005.13 1005.20 1006.20 1006.92 1007.41 1007.38 1007.33 1007.43 1008.09 1008.20 1008.47 1008.75 1008.34 1007.96 1007.24 1006.70 1006.53 1005.92 1005.52 1006.31 1006.09 1006.62 1006.28 1006.20 1006.02 1005.91 1005.92 1006.15 1006.20 1006.05 1006.69 1006.53 1007.23 1007.42 1007.55 1007.73 1008.09 1008.40 1008.51 1008.68 1008.90
1000.07 1001.04 1001.99 1003.57 1004.59 1005.33 1006.02 1006.64 1006.64 1006.95 1007.19 1007.66 1008.16 1008.33 1008.53 1008.55 1008.02 1007.75 1007.25 1007.14 1006.59 1006.20 1006.21 1005.99 1005.98 1006.40 1007.04 1006.67 1006.28 1006.24 1005.70 1005.81 1006.05 1006.05 1006.42 1006.48 1006.78 1006.52 1006.74 1007.62 1008.23 1008.37 1008.69 1008.83 1009.16
998.66 999.50 1000.96 1003.45 1004.31 1005.26 1005.63 1005.91 1006.30 1006.59 1007.23 1007.53 1007.93 1008.39 1008.69 1008.29 1007.63 1007.18 1007.10 1007.01 1007.15 1006.84 1006.14 1006.11 1006.33 1006.99 1007.00 1007.31 1007.06 1006.34 1005.66 1005.66 1005.70 1005.60 1005.75 1006.06 1005.39 1006.41 1007.24 1007.64 1007.88 1008.47 1009.04 1009.04 1009.32
Thickness
5586 5590 5591 5594 5597 5598 5602 5605 5609 5613 5618 5621 5625 5629 5633 5637 5642 5647 5653 5665 5670 5673 5676 5672 5674 5675 5675 5672 5672 5667 5659 5659 5673 5668 5690 5689 5694 5698 5702 5701 5700 5704 5707 5706 5702
5575 5575 5579 5582 5583 5587 5590 5591 5595 5598 5603 5610 5615 5618 5623 5628 5633 5640 5658 5662 5664 5667 5666 5664 5662 5663 5660 5664 5663 5661 5653 5667 5680 5680 5690 5691 5691 5695 5696 5695 5698 5702 5704 5700 5698
5561 5563 5563 5567 5569 5571 5574 5578 5580 5585 5588 5595 5603 5607 5611 5617 5623 5642 5650 5655 5657 5658 5660 5660 5657 5659 5655 5657 5659 5658 5664 5672 5684 5685 5689 5689 5689 5692 5691 5690 5702 5705 5707 5698 5694
5544 5547 5548 5550 5553 5556 5557 5561 5565 5570 5574 5579 5588 5592 5598 5605 5608 5635 5642 5650 5651 5647 5647 5648 5647 5646 5646 5647 5656 5656 5665 5671 5682 5681 5682 5682 5687 5689 5687 5702 5710 5708 5707 5699 5695
5528 5531 5532 5532 5536 5539 5543 5545 5548 5552 5558 5565 5571 5576 5583 5590 5610 5625 5629 5633 5637 5636 5636 5637 5637 5636 5640 5642 5645 5648 5664 5663 5669 5671 5674 5678 5681 5684 5689 5698 5701 5702 5699 5698 5697
5509 5512 5516 5516 5517 5521 5524 5530 5533 5535 5538 5544 5553 5560 5565 5586 5604 5607 5614 5617 5620 5624 5625 5627 5632 5633 5633 5634 5640 5652 5653 5661 5659 5661 5664 5670 5672 5679 5701 5697 5696 5694 5695 5696 5696
5492 5495 5496 5500 5500 5502 5506 5509 5515 5518 5521 5525 5531 5540 5553 5580 5590 5593 5599 5603 5605 5609 5615 5620 5623 5626 5626 5629 5633 5641 5646 5646 5648 5656 5659 5661 5661 5683 5696 5693 5693 5696 5693 5693 5695
5473 5474 5479 5481 5484 5485 5487 5490 5492 5498 5502 5505 5511 5520 5548 5569 5576 5580 5579 5588 5595 5597 5603 5611 5614 5615 5618 5622 5620 5626 5629 5623 5647 5648 5653 5655 5664 5689 5689 5685 5687 5686 5690 5691 5694
5454 5456 5460 5465 5466 5467 5470 5471 5472 5476 5482 5485 5491 5500 5529 5555 5564 5569 5569 5572 5580 5586 5589 5597 5601 5600 5603 5598 5599 5594 5601 5613 5635 5640 5643 5641 5653 5678 5680 5678 5681 5682 5685 5689 5692
5437 5437 5441 5445 5449 5450 5450 5450 5450 5453 5463 5462 5471 5477 5514 5537 5554 5558 5557 5560 5562 5568 5573 5575 5576 5579 5574 5582 5597 5590 5606 5613 5621 5637 5630 5631 5635 5667 5665 5667 5671 5675 5681 5687 5692
5422 5423 5426 5428 5431 5433 5432 5425 5424 5432 5446 5453 5460 5491 5510 5523 5535 5540 5543 5541 5544 5547 5548 5553 5558 5587 5596 5591 5597 5599 5601 5609 5612 5622 5621 5620 5628 5651 5660 5658 5662 5673 5681 5685 5696
5407 5409 5413 5416 5414 5414 5413 5414 5424 5429 5421 5435 5447 5460 5480 5487 5498 5519 5527 5528 5534 5537 5535 5536 5567 5575 5579 5574 5580 5582 5587 5590 5604 5606 5606 5614 5624 5637 5652 5653 5664 5674 5680 5687 5695
5395 5396 5399 5402 5397 5398 5402 5409 5409 5413 5402 5421 5437 5449 5468 5461 5475 5501 5516 5520 5525 5524 5531 5546 5569 5562 5567 5561 5572 5568 5579 5581 5591 5594 5594 5600 5621 5631 5654 5654 5660 5666 5679 5684 5694
5383 5384 5387 5384 5379 5386 5392 5395 5390 5395 5384 5409 5424 5443 5447 5457 5457 5490 5505 5518 5515 5526 5515 5521 5543 5551 5550 5561 5566 5566 5569 5575 5577 5582 5576 5593 5602 5618 5638 5650 5656 5665 5673 5685 5683
5372 5374 5374 5370 5372 5376 5384 5382 5377 5375 5371 5415 5415 5441 5454 5443 5476 5481 5496 5495 5509 5516 5510 5525 5514 5516 5529 5556 5556 5566 5567 5564 5560 5560 5564 5569 5568 5600 5620 5640 5654 5669 5674 5673 5678
5363 5364 5362 5363 5363 5370 5364 5365 5362 5363 5362 5403 5415 5435 5433 5440 5458 5468 5473 5482 5502 5503 5509 5516 5516 5526 5544 5538 5548 5536 5537 5532 5523 5534 5533 5563 5568 5601 5617 5641 5659 5663 5665 5665 5660
5355 5353 5352 5354 5360 5358 5349 5344 5348 5354 5387 5382 5420 5430 5438 5440 5444 5451 5467 5462 5480 5478 5477 5486 5500 5514 5520 5516 5519 5531 5530 5502 5494 5484 5544 5532 5556 5615 5618 5628 5636 5652 5654 5650 5651
5347 5346 5349 5350 5349 5349 5344 5340 5346 5345 5372 5413 5422 5420 5424 5435 5437 5438 5453 5458 5472 5487 5488 5492 5491 5503 5514 5521 5512 5518 5530 5516 5507 5503 5535 5515 5561 5595 5618 5622 5621 5625 5636 5642 5645
5339 5338 5341 5349 5348 5343 5337 5345 5359 5357 5410 5412 5415 5417 5417 5417 5424 5431 5439 5455 5479 5490 5497 5487 5492 5502 5515 5522 5529 5512 5519 5549 5512 5455 5513 5534 5560 5586 5600 5607 5610 5618 5627 5634 5634
5332 5333 5344 5344 5343 5335 5344 5352 5342 5382 5401 5405 5409 5410 5393 5419 5410 5419 5430 5450 5463 5476 5496 5490 5490 5499 5507 5516 5514 5526 5549 5518 5518 5490 5492 5531 5549 5585 5599 5602 5606 5611 5613 5620 5619
5331 5332 5344 5343 5337 5331 5347 5345 5356 5377 5394 5394 5394 5378 5410 5405 5414 5410 5423 5439 5463 5472 5474 5482 5494 5477 5484 5494 5510 5513 5514 5516 5530 5523 5534 5537 5551 5567 5591 5597 5597 5591 5593 5598 5606
5325 5330 5339 5336 5335 5332 5332 5340 5371 5375 5383 5385 5392 5400 5388 5397 5399 5407 5418 5431 5448 5460 5458 5466 5468 5444 5479 5483 5494 5521 5521 5531 5526 5514 5507 5531 5542 5557 5564 5571 5571 5576 5580 5585 5589
5321 5321 5331 5343 5336 5331 5325 5342 5355 5367 5373 5380 5382 5394 5386 5384 5387 5414 5409 5430 5436 5448 5452 5460 5453 5451 5448 5467 5470 5489 5506 5523 5519 5509 5504 5527 5538 5539 5547 5557 5564 5568 5572 5569 5577
5313 5320 5322 5327 5325 5348 5328 5343 5350 5362 5369 5372 5372 5386 5379 5380 5380 5395 5409 5418 5420 5437 5456 5454 5452 5465 5472 5499 5494 5480 5496 5512 5521 5511 5520 5525 5537 5535 5540 5546 5549 5555 5562 5564 5567
5309 5312 5320 5328 5315 5337 5340 5343 5339 5351 5364 5370 5364 5367 5367 5360 5369 5380 5388 5407 5409 5420 5434 5430 5427 5450 5474 5477 5478 5494 5502 5488 5500 5519 5510 5534 5523 5535 5538 5541 5536 5539 5548 5554 5558
5307 5309 5306 5334 5332 5339 5349 5328 5350 5350 5356 5358 5361 5359 5355 5348 5378 5367 5386 5394 5407 5412 5409 5422 5430 5412 5410 5446 5454 5462 5487 5483 5488 5500 5509 5509 5510 5533 5532 5522 5522 5530 5533 5540 5542
5317 5331 5337 5338 5338 5331 5327 5340 5353 5357 5357 5357 5353 5348 5345 5353 5369 5379 5381 5385 5389 5397 5414 5420 5405 5410 5442 5417 5422 5438 5456 5477 5486 5500 5507 5498 5539 5515 5518 5516 5523 5517 5518 5529 5534